| time (UTC) | temp C | wind direction | speed KPH | gust KPH | rain 1hr cm | rain 24hr cm | rain mn cm | humidity % | barometer mb |
| 20260510020029 | 12 | 355 | 1.6 | 3.2 | 0.00 | 0.00 | 0.00 | 90 | 1007.7 |
| 20260510015530 | 12 | 355 | 1.6 | 3.2 | 0.00 | 0.00 | 0.00 | 90 | 1007.7 |
| 20260510015103 | 12 | 355 | 1.6 | 3.2 | 0.00 | 0.00 | 0.00 | 89 | 1007.8 |
| 20260510014529 | 12 | 5 | 1.6 | 1.6 | 0.00 | 0.00 | 0.00 | 89 | 1008.0 |
| 20260510014028 | 12 | 350 | 0.0 | 3.2 | 0.00 | 0.00 | 0.00 | 89 | 1008.0 |
| 20260510013533 | 12 | 355 | 0.0 | 3.2 | 0.00 | 0.00 | 0.00 | 89 | 1008.0 |
| 20260510013030 | 12 | 348 | 0.0 | 1.6 | 0.00 | 0.00 | 0.00 | 89 | 1008.0 |
| 20260510012545 | 13 | 339 | 0.0 | 4.8 | 0.00 | 0.00 | 0.00 | 89 | 1008.0 |
| 20260510012044 | 13 | 350 | 1.6 | 4.8 | 0.00 | 0.00 | 0.00 | 89 | 1008.0 |
| 20260510011530 | 13 | 348 | 1.6 | 3.2 | 0.00 | 0.00 | 0.00 | 88 | 1008.1 |
| 20260510011031 | 13 | 355 | 1.6 | 3.2 | 0.00 | 0.00 | 0.00 | 88 | 1008.1 |
| 20260510010540 | 13 | 355 | 1.6 | 3.2 | 0.00 | 0.00 | 0.00 | 88 | 1008.2 |
| 20260510010031 | 13 | 351 | 1.6 | 4.8 | 0.00 | 0.00 | 0.00 | 87 | 1008.2 |
| 20260510005541 | 13 | 355 | 1.6 | 4.8 | 0.00 | 0.00 | 0.00 | 88 | 1008.3 |
| 20260510005034 | 13 | 11 | 3.2 | 4.8 | 0.00 | 0.00 | 0.00 | 88 | 1008.3 |
| 20260510004601 | 13 | 5 | 1.6 | 4.8 | 0.00 | 0.00 | 0.00 | 88 | 1008.4 |
| 20260510004041 | 13 | 348 | 0.0 | 0.0 | 0.00 | 0.00 | 0.00 | 88 | 1008.4 |
| 20260510003545 | 13 | 344 | 0.0 | 0.0 | 0.00 | 0.00 | 0.00 | 88 | 1008.5 |
| 20260510003043 | 13 | 347 | 0.0 | 0.0 | 0.00 | 0.00 | 0.00 | 88 | 1008.5 |
| 20260510002551 | 13 | 360 | 0.0 | 0.0 | 0.00 | 0.00 | 0.00 | 87 | 1008.6 |
| 20260510002032 | 13 | 360 | 0.0 | 0.0 | 0.00 | 0.00 | 0.00 | 87 | 1008.6 |
| 20260510001536 | 13 | 360 | 0.0 | 0.0 | 0.00 | 0.00 | 0.00 | 87 | 1008.7 |
| 20260510001039 | 13 | 360 | 0.0 | 0.0 | 0.00 | 0.00 | 0.00 | 86 | 1008.7 |
| 20260510000538 | 13 | 360 | 0.0 | 0.0 | 0.00 | 0.00 | 0.00 | 86 | 1008.8 |
| 20260510000038 | 13 | 360 | 0.0 | 0.0 | 0.00 | 0.00 | 0.00 | 86 | 1008.8 |
| 20260509235532 | 14 | 360 | 0.0 | 0.0 | 0.00 | 0.00 | 0.00 | 86 | 1008.8 |
| 20260509235034 | 14 | 360 | 0.0 | 0.0 | 0.00 | 0.00 | 0.00 | 86 | 1008.8 |
| 20260509234601 | 14 | 360 | 0.0 | 0.0 | 0.00 | 0.00 | 0.00 | 85 | 1008.8 |
| 20260509234026 | 14 | 360 | 0.0 | 0.0 | 0.00 | 0.00 | 0.00 | 86 | 1008.9 |
| 20260509233528 | 14 | 360 | 0.0 | 0.0 | 0.00 | 0.00 | 0.00 | 85 | 1009.0 |
| 20260509233034 | 14 | 360 | 0.0 | 0.0 | 0.00 | 0.00 | 0.00 | 85 | 1008.9 |
| 20260509232528 | 14 | 360 | 0.0 | 0.0 | 0.00 | 0.00 | 0.00 | 85 | 1009.0 |
| 20260509232032 | 14 | 360 | 0.0 | 0.0 | 0.00 | 0.00 | 0.00 | 84 | 1009.0 |
| 20260509231543 | 15 | 360 | 0.0 | 0.0 | 0.00 | 0.00 | 0.00 | 84 | 1009.0 |
| 20260509231030 | 15 | 360 | 0.0 | 0.0 | 0.00 | 0.00 | 0.00 | 83 | 1009.1 |
| 20260509230600 | 15 | 360 | 0.0 | 0.0 | 0.00 | 0.00 | 0.00 | 83 | 1009.1 |
| 20260509230031 | 15 | 360 | 0.0 | 0.0 | 0.00 | 0.00 | 0.00 | 82 | 1009.2 |
| 20260509225540 | 15 | 360 | 0.0 | 0.0 | 0.00 | 0.00 | 0.00 | 82 | 1009.2 |
| 20260509225105 | 15 | 360 | 0.0 | 0.0 | 0.00 | 0.00 | 0.00 | 82 | 1009.2 |
| 20260509224527 | 15 | 360 | 0.0 | 0.0 | 0.00 | 0.00 | 0.00 | 82 | 1009.2 |
| 20260509224026 | 15 | 360 | 0.0 | 0.0 | 0.00 | 0.00 | 0.00 | 81 | 1009.3 |
| 20260509223535 | 15 | 360 | 0.0 | 0.0 | 0.00 | 0.00 | 0.00 | 82 | 1009.3 |
| 20260509223102 | 16 | 13 | 0.0 | 0.0 | 0.00 | 0.00 | 0.00 | 82 | 1009.2 |
| 20260509222531 | 16 | 13 | 0.0 | 0.0 | 0.00 | 0.00 | 0.00 | 81 | 1009.3 |
| 20260509222035 | 16 | 13 | 0.0 | 0.0 | 0.00 | 0.00 | 0.00 | 81 | 1009.4 |
| 20260509221535 | 16 | 13 | 0.0 | 0.0 | 0.00 | 0.00 | 0.00 | 81 | 1009.5 |
| 20260509221032 | 16 | 13 | 0.0 | 0.0 | 0.00 | 0.00 | 0.00 | 81 | 1009.4 |
| 20260509220534 | 16 | 13 | 0.0 | 0.0 | 0.00 | 0.00 | 0.00 | 81 | 1009.5 |
| 20260509220026 | 16 | 13 | 0.0 | 0.0 | 0.00 | 0.00 | 0.00 | 80 | 1009.4 |
| 20260509215532 | 16 | 13 | 0.0 | 0.0 | 0.00 | 0.00 | 0.00 | 80 | 1009.5 |
| 20260509215032 | 16 | 13 | 0.0 | 1.6 | 0.00 | 0.00 | 0.00 | 79 | 1009.4 |
| 20260509214536 | 16 | 11 | 1.6 | 1.6 | 0.00 | 0.00 | 0.00 | 79 | 1009.4 |
| 20260509214036 | 16 | 10 | 0.0 | 1.6 | 0.00 | 0.00 | 0.00 | 79 | 1009.3 |
| 20260509213539 | 16 | 5 | 0.0 | 1.6 | 0.00 | 0.00 | 0.00 | 79 | 1009.3 |
| 20260509213040 | 16 | 350 | 0.0 | 1.6 | 0.00 | 0.00 | 0.00 | 80 | 1009.3 |
| 20260509212541 | 16 | 348 | 0.0 | 1.6 | 0.00 | 0.00 | 0.00 | 80 | 1009.4 |
| 20260509212035 | 16 | 349 | 0.0 | 1.6 | 0.00 | 0.00 | 0.00 | 80 | 1009.4 |
| 20260509211531 | 16 | 10 | 0.0 | 1.6 | 0.00 | 0.00 | 0.00 | 80 | 1009.3 |
| 20260509211035 | 16 | 15 | 0.0 | 0.0 | 0.00 | 0.00 | 0.00 | 80 | 1009.3 |
| 20260509210553 | 16 | 15 | 0.0 | 0.0 | 0.00 | 0.00 | 0.00 | 81 | 1009.4 |
| 20260509210041 | 16 | 15 | 0.0 | 0.0 | 0.00 | 0.00 | 0.00 | 80 | 1009.4 |
| 20260509205526 | 16 | 15 | 0.0 | 0.0 | 0.00 | 0.00 | 0.00 | 80 | 1009.5 |
| 20260509205044 | 16 | 15 | 0.0 | 1.6 | 0.00 | 0.00 | 0.00 | 80 | 1009.6 |
| 20260509204539 | 17 | 15 | 0.0 | 1.6 | 0.00 | 0.00 | 0.00 | 79 | 1009.6 |
| 20260509204039 | 17 | 34 | 0.0 | 0.0 | 0.00 | 0.00 | 0.00 | 79 | 1009.6 |
| 20260509203528 | 17 | 34 | 0.0 | 1.6 | 0.00 | 0.00 | 0.00 | 78 | 1009.7 |
| 20260509203028 | 17 | 34 | 0.0 | 1.6 | 0.00 | 0.00 | 0.00 | 77 | 1009.6 |
| 20260509202529 | 17 | 33 | 0.0 | 1.6 | 0.00 | 0.00 | 0.00 | 77 | 1009.6 |
| 20260509202055 | 17 | 28 | 0.0 | 1.6 | 0.00 | 0.00 | 0.00 | 76 | 1009.6 |
| 20260509201536 | 17 | 28 | 0.0 | 3.2 | 0.00 | 0.00 | 0.00 | 76 | 1009.6 |
| 20260509201046 | 17 | 39 | 1.6 | 3.2 | 0.00 | 0.00 | 0.00 | 76 | 1009.5 |
| 20260509200537 | 18 | 42 | 0.0 | 4.8 | 0.00 | 0.00 | 0.00 | 76 | 1009.5 |
| 20260509200033 | 18 | 36 | 1.6 | 6.4 | 0.00 | 0.00 | 0.00 | 76 | 1009.5 |
| 20260509195603 | 18 | 44 | 1.6 | 6.4 | 0.00 | 0.00 | 0.00 | 76 | 1009.4 |
| 20260509195042 | 18 | 61 | 1.6 | 4.8 | 0.00 | 0.00 | 0.00 | 75 | 1009.4 |
| 20260509194544 | 18 | 47 | 1.6 | 6.4 | 0.00 | 0.00 | 0.00 | 75 | 1009.3 |
| 20260509194044 | 18 | 38 | 1.6 | 4.8 | 0.00 | 0.00 | 0.00 | 75 | 1009.3 |
| 20260509193545 | 18 | 53 | 1.6 | 4.8 | 0.00 | 0.00 | 0.00 | 75 | 1009.3 |
| 20260509193036 | 18 | 60 | 1.6 | 4.8 | 0.00 | 0.00 | 0.00 | 75 | 1009.3 |
| 20260509192534 | 18 | 44 | 1.6 | 4.8 | 0.00 | 0.00 | 0.00 | 75 | 1009.2 |
| 20260509192032 | 19 | 37 | 1.6 | 3.2 | 0.00 | 0.00 | 0.00 | 74 | 1009.3 |
| 20260509191539 | 19 | 40 | 1.6 | 4.8 | 0.00 | 0.00 | 0.00 | 73 | 1009.2 |
| 20260509191044 | 19 | 40 | 1.6 | 4.8 | 0.00 | 0.00 | 0.00 | 73 | 1009.2 |
| 20260509190539 | 20 | 57 | 1.6 | 6.4 | 0.00 | 0.00 | 0.00 | 72 | 1009.2 |
| 20260509190030 | 20 | 63 | 1.6 | 6.4 | 0.00 | 0.00 | 0.00 | 72 | 1009.2 |
| 20260509185540 | 20 | 41 | 3.2 | 8.0 | 0.00 | 0.00 | 0.00 | 72 | 1009.1 |
| 20260509185036 | 20 | 55 | 3.2 | 8.0 | 0.00 | 0.00 | 0.00 | 71 | 1009.0 |
| 20260509184602 | 20 | 26 | 4.8 | 8.0 | 0.00 | 0.00 | 0.00 | 71 | 1009.0 |
| 20260509184036 | 20 | 40 | 3.2 | 6.4 | 0.00 | 0.00 | 0.00 | 71 | 1008.9 |
| 20260509183544 | 21 | 50 | 3.2 | 6.4 | 0.00 | 0.00 | 0.00 | 70 | 1008.8 |
| 20260509183030 | 21 | 57 | 3.2 | 6.4 | 0.00 | 0.00 | 0.00 | 70 | 1008.8 |
| 20260509182541 | 21 | 72 | 1.6 | 8.0 | 0.00 | 0.00 | 0.00 | 69 | 1008.7 |
| 20260509182043 | 21 | 57 | 1.6 | 8.0 | 0.00 | 0.00 | 0.00 | 69 | 1008.7 |
| 20260509181527 | 21 | 42 | 4.8 | 14.5 | 0.00 | 0.00 | 0.00 | 68 | 1008.7 |
| 20260509181032 | 21 | 47 | 6.4 | 14.5 | 0.00 | 0.00 | 0.00 | 67 | 1008.6 |
| 20260509180600 | 22 | 41 | 3.2 | 14.5 | 0.00 | 0.00 | 0.00 | 66 | 1008.6 |
| 20260509180035 | 22 | 46 | 8.0 | 14.5 | 0.00 | 0.00 | 0.00 | 65 | 1008.6 |
| 20260509175544 | 22 | 57 | 4.8 | 14.5 | 0.00 | 0.00 | 0.00 | 65 | 1008.6 |
| 20260509175029 | 22 | 24 | 4.8 | 14.5 | 0.00 | 0.00 | 0.00 | 63 | 1008.7 |
| 20260509174538 | 22 | 58 | 8.0 | 19.3 | 0.00 | 0.00 | 0.00 | 63 | 1008.6 |
| 20260509174038 | 22 | 49 | 8.0 | 19.3 | 0.00 | 0.00 | 0.00 | 61 | 1008.7 |
| 20260509173529 | 22 | 44 | 8.0 | 16.1 | 0.00 | 0.00 | 0.00 | 60 | 1008.6 |
| 20260509173053 | 23 | 56 | 6.4 | 16.1 | 0.00 | 0.00 | 0.00 | 59 | 1008.6 |
| 20260509172543 | 23 | 28 | 6.4 | 17.7 | 0.00 | 0.00 | 0.00 | 58 | 1008.7 |
| 20260509172039 | 23 | 49 | 6.4 | 17.7 | 0.00 | 0.00 | 0.00 | 55 | 1008.7 |
| 20260509171537 | 23 | 71 | 6.4 | 12.9 | 0.00 | 0.00 | 0.00 | 50 | 1008.7 |
| 20260509171044 | 23 | 80 | 6.4 | 14.5 | 0.00 | 0.00 | 0.00 | 48 | 1008.8 |
| 20260509170537 | 24 | 81 | 4.8 | 14.5 | 0.00 | 0.00 | 0.00 | 48 | 1008.8 |
| 20260509170104 | 24 | 21 | 3.2 | 12.9 | 0.00 | 0.00 | 0.00 | 49 | 1008.8 |
| 20260509165530 | 24 | 61 | 6.4 | 14.5 | 0.00 | 0.00 | 0.00 | 48 | 1008.8 |
| 20260509165030 | 24 | 88 | 6.4 | 14.5 | 0.00 | 0.00 | 0.00 | 52 | 1008.9 |
| 20260509164542 | 24 | 71 | 4.8 | 14.5 | 0.00 | 0.00 | 0.00 | 51 | 1008.9 |
| 20260509164045 | 25 | 74 | 6.4 | 14.5 | 0.00 | 0.00 | 0.00 | 49 | 1008.9 |
| 20260509163538 | 25 | 55 | 3.2 | 11.3 | 0.00 | 0.00 | 0.00 | 48 | 1008.9 |
| 20260509163037 | 25 | 82 | 3.2 | 16.1 | 0.00 | 0.00 | 0.00 | 49 | 1009.0 |
| 20260509162543 | 25 | 67 | 8.0 | 16.1 | 0.00 | 0.00 | 0.00 | 47 | 1009.0 |
| 20260509162027 | 25 | 75 | 3.2 | 12.9 | 0.00 | 0.00 | 0.00 | 46 | 1009.0 |
| 20260509161530 | 25 | 76 | 4.8 | 16.1 | 0.00 | 0.00 | 0.00 | 47 | 1009.0 |
| 20260509161033 | 25 | 63 | 6.4 | 16.1 | 0.00 | 0.00 | 0.00 | 48 | 1009.1 |
| 20260509160535 | 25 | 36 | 6.4 | 16.1 | 0.00 | 0.00 | 0.00 | 48 | 1009.1 |
| 20260509160030 | 25 | 77 | 6.4 | 14.5 | 0.00 | 0.00 | 0.00 | 47 | 1009.2 |
| 20260509155535 | 25 | 66 | 3.2 | 16.1 | 0.00 | 0.00 | 0.00 | 48 | 1009.2 |
| 20260509155043 | 26 | 81 | 6.4 | 16.1 | 0.00 | 0.00 | 0.00 | 46 | 1009.3 |
| 20260509154528 | 25 | 66 | 6.4 | 14.5 | 0.00 | 0.00 | 0.00 | 49 | 1009.3 |
| 20260509154056 | 25 | 92 | 6.4 | 12.9 | 0.00 | 0.00 | 0.00 | 50 | 1009.3 |
| 20260509153537 | 25 | 78 | 1.6 | 20.9 | 0.00 | 0.00 | 0.00 | 47 | 1009.4 |
| 20260509153041 | 25 | 146 | 6.4 | 20.9 | 0.00 | 0.00 | 0.00 | 44 | 1009.4 |
| 20260509152536 | 25 | 90 | 3.2 | 12.9 | 0.00 | 0.00 | 0.00 | 49 | 1009.4 |
| 20260509152035 | 25 | 61 | 3.2 | 12.9 | 0.00 | 0.00 | 0.00 | 49 | 1009.5 |
| 20260509151527 | 24 | 96 | 6.4 | 9.7 | 0.00 | 0.00 | 0.00 | 52 | 1009.7 |
| 20260509151042 | 24 | 107 | 1.6 | 9.7 | 0.00 | 0.00 | 0.00 | 51 | 1009.5 |
| 20260509150554 | 24 | 72 | 3.2 | 11.3 | 0.00 | 0.00 | 0.00 | 50 | 1009.6 |
| 20260509145045 | 25 | 76 | 4.8 | 12.9 | 0.00 | 0.00 | 0.00 | 45 | 1009.6 |
| 20260509144529 | 25 | 141 | 4.8 | 12.9 | 0.00 | 0.00 | 0.00 | 46 | 1009.7 |
| 20260509144043 | 26 | 99 | 4.8 | 12.9 | 0.00 | 0.00 | 0.00 | 46 | 1009.7 |
| 20260509143533 | 26 | 112 | 3.2 | 20.9 | 0.00 | 0.00 | 0.00 | 46 | 1009.7 |
| 20260509143028 | 26 | 157 | 16.1 | 20.9 | 0.00 | 0.00 | 0.00 | 46 | 1009.7 |
| 20260509142533 | 26 | 111 | 4.8 | 12.9 | 0.00 | 0.00 | 0.00 | 49 | 1009.7 |
| 20260509142027 | 26 | 83 | 3.2 | 17.7 | 0.00 | 0.00 | 0.00 | 48 | 1009.7 |
| 20260509141535 | 26 | 90 | 11.3 | 19.3 | 0.00 | 0.00 | 0.00 | 46 | 1009.8 |
| 20260509141029 | 26 | 115 | 12.9 | 19.3 | 0.00 | 0.00 | 0.00 | 47 | 1009.9 |
| 20260509140601 | 26 | 127 | 9.7 | 16.1 | 0.00 | 0.00 | 0.00 | 47 | 1009.8 |
| 20260509140034 | 26 | 101 | 6.4 | 12.9 | 0.00 | 0.00 | 0.00 | 49 | 1010.1 |
| 20260509135542 | 25 | 95 | 3.2 | 12.9 | 0.00 | 0.00 | 0.00 | 46 | 1010.0 |
| 20260509135046 | 26 | 79 | 3.2 | 12.9 | 0.00 | 0.00 | 0.00 | 48 | 1010.0 |
| 20260509134529 | 25 | 57 | 4.8 | 14.5 | 0.00 | 0.00 | 0.00 | 46 | 1010.0 |
| 20260509134053 | 26 | 72 | 8.0 | 14.5 | 0.00 | 0.00 | 0.00 | 48 | 1010.0 |
| 20260509133551 | 25 | 139 | 8.0 | 14.5 | 0.00 | 0.00 | 0.00 | 49 | 1010.1 |
| 20260509133035 | 26 | 133 | 4.8 | 12.9 | 0.00 | 0.00 | 0.00 | 50 | 1010.0 |
| 20260509132545 | 26 | 69 | 3.2 | 16.1 | 0.00 | 0.00 | 0.00 | 49 | 1010.1 |
| 20260509132046 | 26 | 110 | 6.4 | 16.1 | 0.00 | 0.00 | 0.00 | 49 | 1010.1 |
| 20260509131534 | 25 | 109 | 8.0 | 14.5 | 0.00 | 0.00 | 0.00 | 51 | 1010.1 |
| 20260509131037 | 25 | 100 | 8.0 | 16.1 | 0.00 | 0.00 | 0.00 | 52 | 1010.2 |
| 20260509130546 | 25 | 92 | 11.3 | 16.1 | 0.00 | 0.00 | 0.00 | 50 | 1010.2 |
| 20260509130040 | 25 | 68 | 3.2 | 12.9 | 0.00 | 0.00 | 0.00 | 52 | 1010.2 |
| 20260509125528 | 25 | 60 | 3.2 | 11.3 | 0.00 | 0.00 | 0.00 | 51 | 1010.3 |
| 20260509125043 | 25 | 69 | 1.6 | 17.7 | 0.00 | 0.00 | 0.00 | 51 | 1010.3 |
| 20260509124530 | 24 | 103 | 9.7 | 20.9 | 0.00 | 0.00 | 0.00 | 53 | 1010.4 |
| 20260509124029 | 25 | 131 | 8.0 | 20.9 | 0.00 | 0.00 | 0.00 | 51 | 1010.5 |
| 20260509123534 | 25 | 102 | 3.2 | 14.5 | 0.00 | 0.00 | 0.00 | 51 | 1010.6 |
| 20260509123041 | 25 | 53 | 6.4 | 19.3 | 0.00 | 0.00 | 0.00 | 52 | 1010.6 |
| 20260509122531 | 24 | 117 | 6.4 | 16.1 | 0.00 | 0.00 | 0.00 | 54 | 1010.6 |
| 20260509122027 | 25 | 90 | 6.4 | 16.1 | 0.00 | 0.00 | 0.00 | 52 | 1010.7 |
| 20260509121537 | 25 | 111 | 6.4 | 16.1 | 0.00 | 0.00 | 0.00 | 52 | 1010.7 |
| 20260509121059 | 25 | 132 | 9.7 | 22.5 | 0.00 | 0.00 | 0.00 | 54 | 1010.8 |
| 20260509120542 | 25 | 115 | 6.4 | 22.5 | 0.00 | 0.00 | 0.00 | 53 | 1010.7 |
| 20260509120057 | 25 | 173 | 6.4 | 20.9 | 0.00 | 0.00 | 0.00 | 51 | 1010.8 |
| 20260509115543 | 25 | 122 | 12.9 | 20.9 | 0.00 | 0.00 | 0.00 | 52 | 1011.0 |
| 20260509115024 | 25 | 105 | 12.9 | 22.5 | 0.00 | 0.00 | 0.00 | 51 | 1011.1 |
| 20260509114531 | 25 | 77 | 11.3 | 22.5 | 0.00 | 0.00 | 0.00 | 51 | 1011.0 |
| 20260509114101 | 25 | 91 | 4.8 | 17.7 | 0.00 | 0.00 | 0.00 | 53 | 1011.1 |
| 20260509113527 | 24 | 116 | 9.7 | 17.7 | 0.00 | 0.00 | 0.00 | 53 | 1011.1 |
| 20260509113052 | 24 | 113 | 6.4 | 16.1 | 0.00 | 0.00 | 0.00 | 52 | 1011.1 |
| 20260509112607 | 24 | 94 | 6.4 | 16.1 | 0.00 | 0.00 | 0.00 | 54 | 1011.1 |
| 20260509112042 | 24 | 93 | 8.0 | 16.1 | 0.00 | 0.00 | 0.00 | 53 | 1011.3 |
| 20260509111539 | 23 | 68 | 3.2 | 14.5 | 0.00 | 0.00 | 0.00 | 55 | 1011.3 |
| 20260509111100 | 23 | 70 | 6.4 | 14.5 | 0.00 | 0.00 | 0.00 | 55 | 1011.4 |
| 20260509110534 | 23 | 93 | 6.4 | 16.1 | 0.00 | 0.00 | 0.00 | 58 | 1011.4 |
| 20260509110029 | 23 | 109 | 9.7 | 16.1 | 0.00 | 0.00 | 0.00 | 55 | 1011.6 |
| 20260509105530 | 23 | 115 | 8.0 | 16.1 | 0.00 | 0.00 | 0.00 | 57 | 1011.7 |
| 20260509105037 | 23 | 85 | 6.4 | 16.1 | 0.00 | 0.00 | 0.00 | 55 | 1011.7 |
| 20260509104527 | 23 | 113 | 4.8 | 12.9 | 0.00 | 0.00 | 0.00 | 58 | 1011.8 |
| 20260509104029 | 23 | 70 | 3.2 | 14.5 | 0.00 | 0.00 | 0.00 | 56 | 1011.7 |
| 20260509103602 | 23 | 107 | 6.4 | 14.5 | 0.00 | 0.00 | 0.00 | 56 | 1011.8 |
| 20260509103029 | 23 | 58 | 8.0 | 14.5 | 0.00 | 0.00 | 0.00 | 57 | 1011.8 |
| 20260509102539 | 23 | 138 | 8.0 | 14.5 | 0.00 | 0.00 | 0.00 | 56 | 1011.8 |
| 20260509102043 | 22 | 95 | 8.0 | 12.9 | 0.00 | 0.00 | 0.00 | 59 | 1012.0 |
| 20260509101531 | 22 | 102 | 8.0 | 14.5 | 0.00 | 0.00 | 0.00 | 58 | 1012.0 |
| 20260509101040 | 22 | 109 | 6.4 | 14.5 | 0.00 | 0.00 | 0.00 | 60 | 1012.0 |
| 20260509100532 | 22 | 72 | 1.6 | 14.5 | 0.00 | 0.00 | 0.00 | 59 | 1012.0 |
| 20260509100030 | 22 | 92 | 6.4 | 14.5 | 0.00 | 0.00 | 0.00 | 59 | 1012.0 |
| 20260509095545 | 22 | 63 | 8.0 | 14.5 | 0.00 | 0.00 | 0.00 | 61 | 1012.2 |
| 20260509095045 | 22 | 105 | 3.2 | 14.5 | 0.00 | 0.00 | 0.00 | 62 | 1012.1 |
| 20260509094531 | 22 | 116 | 6.4 | 16.1 | 0.00 | 0.00 | 0.00 | 61 | 1012.1 |
| 20260509094033 | 22 | 90 | 6.4 | 16.1 | 0.00 | 0.00 | 0.00 | 62 | 1012.2 |
| 20260509093544 | 21 | 102 | 4.8 | 14.5 | 0.00 | 0.00 | 0.00 | 63 | 1012.2 |
| 20260509093055 | 21 | 112 | 6.4 | 16.1 | 0.00 | 0.00 | 0.00 | 63 | 1012.3 |
| 20260509092537 | 21 | 132 | 4.8 | 14.5 | 0.00 | 0.00 | 0.00 | 65 | 1012.2 |
| 20260509092044 | 21 | 138 | 4.8 | 11.3 | 0.00 | 0.00 | 0.00 | 64 | 1012.2 |
| 20260509091554 | 21 | 104 | 1.6 | 9.7 | 0.00 | 0.00 | 0.00 | 64 | 1012.3 |
| 20260509091039 | 21 | 140 | 3.2 | 12.9 | 0.00 | 0.00 | 0.00 | 63 | 1012.2 |
| 20260509090533 | 21 | 105 | 1.6 | 9.7 | 0.00 | 0.00 | 0.00 | 67 | 1012.3 |
| 20260509090039 | 21 | 82 | 3.2 | 9.7 | 0.00 | 0.00 | 0.00 | 67 | 1012.3 |
| 20260509085529 | 20 | 77 | 1.6 | 6.4 | 0.00 | 0.00 | 0.00 | 68 | 1012.3 |
| 20260509085033 | 20 | 88 | 1.6 | 6.4 | 0.00 | 0.00 | 0.00 | 70 | 1012.3 |
| 20260509084527 | 20 | 86 | 1.6 | 4.8 | 0.00 | 0.00 | 0.00 | 69 | 1012.3 |
| 20260509084056 | 20 | 134 | 1.6 | 4.8 | 0.00 | 0.00 | 0.00 | 70 | 1012.3 |
| 20260509083545 | 19 | 88 | 0.0 | 6.4 | 0.00 | 0.00 | 0.00 | 71 | 1012.4 |
| 20260509083042 | 18 | 125 | 1.6 | 6.4 | 0.00 | 0.00 | 0.00 | 74 | 1012.6 |
| 20260509082530 | 18 | 57 | 0.0 | 3.2 | 0.00 | 0.00 | 0.00 | 71 | 1012.6 |
| 20260509082057 | 19 | 114 | 0.0 | 3.2 | 0.00 | 0.00 | 0.00 | 71 | 1012.7 |
| 20260509081542 | 18 | 111 | 1.6 | 4.8 | 0.00 | 0.00 | 0.00 | 72 | 1012.8 |
| 20260509081038 | 18 | 142 | 1.6 | 4.8 | 0.00 | 0.00 | 0.00 | 73 | 1012.8 |
| 20260509080526 | 18 | 103 | 0.0 | 1.6 | 0.00 | 0.00 | 0.00 | 75 | 1012.9 |
| 20260509080042 | 17 | 83 | 0.0 | 1.6 | 0.00 | 0.00 | 0.00 | 73 | 1012.9 |
| 20260509075531 | 17 | 84 | 1.6 | 3.2 | 0.00 | 0.00 | 0.00 | 75 | 1012.9 |
| 20260509075046 | 17 | 82 | 1.6 | 4.8 | 0.00 | 0.00 | 0.00 | 77 | 1013.0 |
| 20260509074526 | 16 | 92 | 0.0 | 4.8 | 0.00 | 0.00 | 0.00 | 76 | 1013.0 |
| 20260509074029 | 16 | 94 | 0.0 | 4.8 | 0.00 | 0.00 | 0.00 | 75 | 1013.0 |
| 20260509073535 | 16 | 100 | 1.6 | 4.8 | 0.00 | 0.00 | 0.00 | 77 | 1013.1 |
| 20260509073029 | 16 | 124 | 1.6 | 4.8 | 0.00 | 0.00 | 0.00 | 77 | 1013.0 |
| 20260509072535 | 16 | 129 | 1.6 | 4.8 | 0.00 | 0.00 | 0.00 | 78 | 1013.1 |
| 20260509072048 | 15 | 146 | 1.6 | 4.8 | 0.00 | 0.00 | 0.00 | 78 | 1013.0 |
| 20260509071559 | 14 | 136 | 1.6 | 4.8 | 0.00 | 0.00 | 0.00 | 82 | 1013.1 |
| 20260509071058 | 13 | 43 | 0.0 | 1.6 | 0.00 | 0.00 | 0.00 | 82 | 1013.0 |
| 20260509070540 | 13 | 34 | 1.6 | 1.6 | 0.00 | 0.00 | 0.00 | 83 | 1013.1 |
| 20260509070038 | 13 | 48 | 0.0 | 1.6 | 0.00 | 0.00 | 0.00 | 83 | 1013.1 |
| 20260509065542 | 13 | 71 | 0.0 | 1.6 | 0.00 | 0.00 | 0.00 | 83 | 1013.2 |
| 20260509065040 | 13 | 54 | 0.0 | 3.2 | 0.00 | 0.00 | 0.00 | 82 | 1013.2 |
| 20260509064544 | 13 | 96 | 0.0 | 3.2 | 0.00 | 0.00 | 0.00 | 85 | 1013.2 |
| 20260509064026 | 13 | 93 | 1.6 | 3.2 | 0.00 | 0.00 | 0.00 | 86 | 1013.2 |
| 20260509063532 | 12 | 93 | 1.6 | 3.2 | 0.00 | 0.00 | 0.00 | 88 | 1013.2 |
| 20260509063029 | 12 | 63 | 0.0 | 1.6 | 0.00 | 0.00 | 0.00 | 88 | 1013.2 |
| 20260509062530 | 11 | 67 | 1.6 | 1.6 | 0.00 | 0.00 | 0.00 | 89 | 1013.1 |
| 20260509062027 | 11 | 46 | 0.0 | 1.6 | 0.00 | 0.00 | 0.00 | 90 | 1013.1 |
| 20260509061527 | 11 | 59 | 0.0 | 1.6 | 0.00 | 0.00 | 0.00 | 90 | 1013.1 |
| 20260509061052 | 11 | 45 | 0.0 | 1.6 | 0.00 | 0.00 | 0.00 | 90 | 1013.1 |
| 20260509060537 | 11 | 39 | 0.0 | 1.6 | 0.00 | 0.00 | 0.00 | 90 | 1013.1 |
| 20260509060041 | 10 | 15 | 0.0 | 1.6 | 0.00 | 0.00 | 0.00 | 90 | 1013.1 |
| 20260509055542 | 10 | 45 | 0.0 | 1.6 | 0.00 | 0.00 | 0.00 | 90 | 1013.0 |
| 20260509055045 | 10 | 51 | 0.0 | 1.6 | 0.00 | 0.00 | 0.00 | 90 | 1013.0 |
| 20260509054531 | 10 | 21 | 0.0 | 1.6 | 0.00 | 0.00 | 0.00 | 91 | 1012.9 |
| 20260509054055 | 10 | 5 | 0.0 | 1.6 | 0.00 | 0.00 | 0.00 | 91 | 1012.9 |
| 20260509053541 | 10 | 5 | 0.0 | 1.6 | 0.00 | 0.00 | 0.00 | 92 | 1012.9 |
| 20260509053034 | 9 | 360 | 0.0 | 1.6 | 0.00 | 0.00 | 0.00 | 92 | 1012.9 |
| 20260509052539 | 9 | 355 | 0.0 | 0.0 | 0.00 | 0.00 | 0.00 | 93 | 1012.8 |
| 20260509052038 | 9 | 355 | 0.0 | 0.0 | 0.00 | 0.00 | 0.00 | 93 | 1012.8 |
| 20260509051528 | 8 | 355 | 0.0 | 0.0 | 0.00 | 0.00 | 0.00 | 93 | 1012.7 |
| 20260509051032 | 8 | 355 | 0.0 | 0.0 | 0.00 | 0.00 | 0.00 | 93 | 1012.7 |
| 20260509050544 | 8 | 355 | 0.0 | 1.6 | 0.00 | 0.00 | 0.00 | 93 | 1012.6 |
| 20260509050100 | 8 | 355 | 0.0 | 1.6 | 0.00 | 0.00 | 0.00 | 93 | 1012.6 |
| 20260509045545 | 8 | 350 | 0.0 | 1.6 | 0.00 | 0.00 | 0.00 | 93 | 1012.6 |
| 20260509045026 | 8 | 355 | 0.0 | 1.6 | 0.00 | 0.00 | 0.00 | 93 | 1012.5 |
| 20260509044536 | 8 | 5 | 0.0 | 1.6 | 0.00 | 0.00 | 0.00 | 93 | 1012.5 |
| 20260509044032 | 8 | 5 | 0.0 | 1.6 | 0.00 | 0.00 | 0.00 | 93 | 1012.4 |
| 20260509043540 | 8 | 5 | 0.0 | 1.6 | 0.00 | 0.00 | 0.00 | 93 | 1012.3 |
| 20260509043038 | 8 | 5 | 0.0 | 1.6 | 0.00 | 0.00 | 0.00 | 93 | 1012.3 |
| 20260509042542 | 8 | 5 | 0.0 | 1.6 | 0.00 | 0.00 | 0.00 | 93 | 1012.2 |
| 20260509042042 | 8 | 360 | 0.0 | 1.6 | 0.00 | 0.00 | 0.00 | 93 | 1012.3 |
| 20260509041543 | 8 | 341 | 0.0 | 3.2 | 0.00 | 0.00 | 0.00 | 93 | 1012.3 |
| 20260509041029 | 8 | 346 | 0.0 | 1.6 | 0.00 | 0.00 | 0.00 | 93 | 1012.2 |
| 20260509040534 | 8 | 344 | 0.0 | 1.6 | 0.00 | 0.00 | 0.00 | 93 | 1012.2 |
| 20260509040033 | 8 | 344 | 0.0 | 1.6 | 0.00 | 0.00 | 0.00 | 92 | 1012.3 |
| 20260509035537 | 8 | 346 | 0.0 | 1.6 | 0.00 | 0.00 | 0.00 | 92 | 1012.3 |
| 20260509035039 | 8 | 355 | 0.0 | 1.6 | 0.00 | 0.00 | 0.00 | 92 | 1012.3 |
| 20260509034539 | 8 | 350 | 0.0 | 1.6 | 0.00 | 0.00 | 0.00 | 93 | 1012.3 |
| 20260509034037 | 8 | 343 | 0.0 | 3.2 | 0.00 | 0.00 | 0.00 | 93 | 1012.4 |
| 20260509033536 | 8 | 9 | 1.6 | 4.8 | 0.00 | 0.00 | 0.00 | 93 | 1012.4 |
| 20260509033035 | 8 | 355 | 1.6 | 4.8 | 0.00 | 0.00 | 0.00 | 93 | 1012.4 |
| 20260509032542 | 8 | 327 | 0.0 | 1.6 | 0.00 | 0.00 | 0.00 | 93 | 1012.3 |
| 20260509032043 | 8 | 344 | 0.0 | 1.6 | 0.00 | 0.00 | 0.00 | 92 | 1012.3 |
| 20260509031536 | 8 | 350 | 0.0 | 3.2 | 0.00 | 0.00 | 0.00 | 93 | 1012.3 |
| 20260509031034 | 8 | 355 | 1.6 | 1.6 | 0.00 | 0.00 | 0.00 | 93 | 1012.3 |
| 20260509030541 | 8 | 337 | 0.0 | 1.6 | 0.00 | 0.00 | 0.00 | 92 | 1012.4 |
| 20260509030033 | 8 | 337 | 0.0 | 1.6 | 0.00 | 0.00 | 0.00 | 92 | 1012.4 |
| 20260509025606 | 8 | 334 | 0.0 | 1.6 | 0.00 | 0.00 | 0.00 | 92 | 1012.4 |
| 20260509025044 | 8 | 328 | 0.0 | 1.6 | 0.00 | 0.00 | 0.00 | 92 | 1012.5 |
| 20260509024548 | 8 | 333 | 0.0 | 1.6 | 0.00 | 0.00 | 0.00 | 92 | 1012.5 |
| 20260509024026 | 8 | 326 | 0.0 | 0.0 | 0.00 | 0.00 | 0.00 | 92 | 1012.6 |
| 20260509023538 | 8 | 326 | 0.0 | 1.6 | 0.00 | 0.00 | 0.00 | 92 | 1012.7 |
| 20260509023033 | 8 | 326 | 0.0 | 1.6 | 0.00 | 0.00 | 0.00 | 91 | 1012.7 |
| 20260509022540 | 8 | 350 | 0.0 | 0.0 | 0.00 | 0.00 | 0.00 | 91 | 1012.7 |
| 20260509022039 | 9 | 350 | 0.0 | 0.0 | 0.00 | 0.00 | 0.00 | 91 | 1012.7 |
| 20260509021528 | 9 | 350 | 0.0 | 0.0 | 0.00 | 0.00 | 0.00 | 91 | 1012.7 |
| 20260509021028 | 9 | 350 | 0.0 | 0.0 | 0.00 | 0.00 | 0.00 | 91 | 1012.8 |
| 20260509020537 | 9 | 350 | 0.0 | 0.0 | 0.00 | 0.00 | 0.00 | 91 | 1012.7 |